| time (UTC) | temp F | wind direction | speed MPH | gust MPH | rain 1hr in | rain 24hr in | rain mn in | humidity % | barometer mb |
| 20260902155015 | 92 | 258 | 4.0 | 7.0 | 0.00 | 0.00 | 0.00 | 50 | 1018.6 |
| 20260902154034 | 91 | 263 | 4.0 | 7.0 | 0.00 | 0.00 | 0.00 | 51 | 1018.4 |
| 20260902153031 | 91 | 266 | 3.0 | 7.0 | 0.00 | 0.00 | 0.00 | 52 | 1018.4 |
| 20260902152030 | 91 | 257 | 3.0 | 8.0 | 0.00 | 0.00 | 0.00 | 52 | 1018.4 |
| 20260902151028 | 90 | 245 | 5.0 | 11.0 | 0.00 | 0.00 | 0.00 | 53 | 1018.4 |
| 20260902150046 | 90 | 266 | 4.0 | 8.0 | 0.00 | 0.00 | 0.00 | 54 | 1018.4 |
| 20260902145024 | 90 | 255 | 3.0 | 4.0 | 0.00 | 0.00 | 0.00 | 54 | 1018.4 |
| 20260902144022 | 88 | 247 | 3.0 | 5.0 | 0.00 | 0.00 | 0.00 | 56 | 1018.5 |
| 20260902143020 | 87 | 243 | 3.0 | 6.0 | 0.00 | 0.00 | 0.00 | 57 | 1018.4 |
| 20260902142018 | 87 | 240 | 3.0 | 7.0 | 0.00 | 0.00 | 0.00 | 58 | 1018.4 |
| 20260902141017 | 86 | 238 | 2.0 | 4.0 | 0.00 | 0.00 | 0.00 | 60 | 1018.5 |
| 20260902140055 | 84 | 257 | 3.0 | 6.0 | 0.00 | 0.00 | 0.00 | 62 | 1018.5 |
| 20260902135033 | 84 | 247 | 2.0 | 5.0 | 0.00 | 0.00 | 0.00 | 64 | 1018.5 |
| 20260902134031 | 83 | 236 | 2.0 | 6.0 | 0.00 | 0.00 | 0.00 | 66 | 1018.6 |
| 20260902133029 | 81 | 206 | 3.0 | 5.0 | 0.00 | 0.00 | 0.00 | 68 | 1018.7 |
| 20260902132027 | 80 | 219 | 3.0 | 6.0 | 0.00 | 0.00 | 0.00 | 70 | 1018.7 |
| 20260902131025 | 79 | 348 | 2.0 | 6.0 | 0.00 | 0.00 | 0.00 | 71 | 1018.6 |
| 20260902130044 | 78 | 224 | 1.0 | 4.0 | 0.00 | 0.00 | 0.00 | 74 | 1018.5 |
| 20260902125042 | 77 | 203 | 1.0 | 4.0 | 0.00 | 0.00 | 0.00 | 75 | 1018.6 |
| 20260902124020 | 76 | 132 | 1.0 | 4.0 | 0.00 | 0.00 | 0.00 | 76 | 1018.5 |
| 20260902123018 | 75 | 121 | 2.0 | 4.0 | 0.00 | 0.00 | 0.00 | 77 | 1018.4 |
| 20260902122016 | 75 | 109 | 2.0 | 4.0 | 0.00 | 0.00 | 0.00 | 78 | 1018.3 |
| 20260902121034 | 74 | 295 | 1.0 | 3.0 | 0.00 | 0.00 | 0.00 | 79 | 1018.3 |
| 20260902120032 | 74 | 79 | 2.0 | 3.0 | 0.00 | 0.00 | 0.00 | 78 | 1018.1 |
| 20260902115051 | 74 | 124 | 2.0 | 4.0 | 0.00 | 0.00 | 0.00 | 78 | 1017.9 |
| 20260902114029 | 74 | 71 | 1.0 | 3.0 | 0.00 | 0.00 | 0.00 | 78 | 1017.9 |
| 20260902113027 | 74 | 32 | 2.0 | 5.0 | 0.00 | 0.00 | 0.00 | 77 | 1017.9 |
| 20260902112025 | 74 | 72 | 2.0 | 4.0 | 0.00 | 0.00 | 0.00 | 77 | 1017.7 |
| 20260902111023 | 74 | 51 | 2.0 | 4.0 | 0.00 | 0.00 | 0.00 | 76 | 1017.7 |
| 20260902110021 | 75 | 32 | 2.0 | 3.0 | 0.00 | 0.00 | 0.00 | 76 | 1017.6 |
| 20260902105019 | 75 | 30 | 2.0 | 4.0 | 0.00 | 0.00 | 0.00 | 75 | 1017.6 |
| 20260902104017 | 75 | 52 | 3.0 | 4.0 | 0.00 | 0.00 | 0.00 | 75 | 1017.4 |
| 20260902103035 | 75 | 14 | 2.0 | 4.0 | 0.00 | 0.00 | 0.00 | 74 | 1017.4 |
| 20260902102034 | 75 | 123 | 2.0 | 4.0 | 0.00 | 0.00 | 0.00 | 74 | 1017.2 |
| 20260902101032 | 76 | 65 | 1.0 | 3.0 | 0.00 | 0.00 | 0.00 | 74 | 1017.5 |
| 20260902100030 | 76 | 94 | 2.0 | 4.0 | 0.00 | 0.00 | 0.00 | 73 | 1017.3 |
| 20260902095029 | 76 | 86 | 1.0 | 3.0 | 0.00 | 0.00 | 0.00 | 73 | 1017.4 |
| 20260902094026 | 76 | 27 | 3.0 | 6.0 | 0.00 | 0.00 | 0.00 | 73 | 1017.1 |
| 20260902093024 | 76 | 126 | 1.0 | 4.0 | 0.00 | 0.00 | 0.00 | 73 | 1017.1 |
| 20260902092023 | 76 | 113 | 1.0 | 2.0 | 0.00 | 0.00 | 0.00 | 73 | 1017.2 |
| 20260902091021 | 76 | 58 | 1.0 | 2.0 | 0.00 | 0.00 | 0.00 | 73 | 1017.0 |
| 20260902090019 | 76 | 89 | 1.0 | 2.0 | 0.00 | 0.00 | 0.00 | 73 | 1017.2 |
| 20260902085017 | 76 | 89 | 1.0 | 3.0 | 0.00 | 0.00 | 0.00 | 73 | 1017.1 |
| 20260902084035 | 76 | 25 | 0.0 | 2.0 | 0.00 | 0.00 | 0.00 | 73 | 1017.1 |
| 20260902083033 | 76 | 93 | 1.0 | 2.0 | 0.00 | 0.00 | 0.00 | 73 | 1017.2 |
| 20260902082031 | 76 | 68 | 1.0 | 2.0 | 0.00 | 0.00 | 0.00 | 72 | 1017.2 |
| 20260902081029 | 76 | 39 | 1.0 | 2.0 | 0.00 | 0.00 | 0.00 | 72 | 1017.3 |
| 20260902080028 | 77 | 334 | 1.0 | 2.0 | 0.00 | 0.00 | 0.00 | 72 | 1017.3 |
| 20260902075026 | 77 | 22 | 0.0 | 2.0 | 0.00 | 0.00 | 0.00 | 71 | 1017.2 |
| 20260902074024 | 77 | 91 | 1.0 | 2.0 | 0.00 | 0.00 | 0.00 | 70 | 1017.1 |
| 20260902073042 | 77 | 156 | 1.0 | 2.0 | 0.00 | 0.00 | 0.00 | 70 | 1017.2 |
| 20260902072020 | 77 | 256 | 0.0 | 2.0 | 0.00 | 0.00 | 0.00 | 71 | 1017.1 |
| 20260902071018 | 77 | 307 | 0.0 | 2.0 | 0.00 | 0.00 | 0.00 | 71 | 1017.2 |
| 20260902070017 | 77 | 320 | 0.0 | 2.0 | 0.00 | 0.00 | 0.00 | 70 | 1017.2 |
| 20260902065034 | 78 | 352 | 0.0 | 2.0 | 0.00 | 0.00 | 0.00 | 69 | 1017.2 |
| 20260902064033 | 78 | 104 | 0.0 | 2.0 | 0.00 | 0.00 | 0.00 | 69 | 1017.2 |
| 20260902063051 | 78 | 315 | 0.0 | 2.0 | 0.00 | 0.00 | 0.00 | 68 | 1017.1 |
| 20260902062029 | 78 | 310 | 0.0 | 2.0 | 0.00 | 0.00 | 0.00 | 68 | 1017.3 |
| 20260902061027 | 78 | 338 | 0.0 | 2.0 | 0.00 | 0.00 | 0.00 | 68 | 1017.2 |
| 20260902060026 | 78 | 299 | 1.0 | 2.0 | 0.00 | 0.00 | 0.00 | 68 | 1017.1 |
| 20260902055023 | 79 | 306 | 1.0 | 2.0 | 0.00 | 0.00 | 0.00 | 67 | 1017.0 |
| 20260902054022 | 79 | 309 | 0.0 | 2.0 | 0.00 | 0.00 | 0.00 | 67 | 1017.0 |
| 20260902053040 | 79 | 309 | 0.0 | 2.0 | 0.00 | 0.00 | 0.00 | 66 | 1016.9 |
| 20260902052018 | 79 | 17 | 1.0 | 2.0 | 0.00 | 0.00 | 0.00 | 65 | 1016.9 |
| 20260902051016 | 80 | 323 | 1.0 | 2.0 | 0.00 | 0.00 | 0.00 | 64 | 1016.9 |
| 20260902050034 | 80 | 312 | 1.0 | 2.0 | 0.00 | 0.00 | 0.00 | 64 | 1016.8 |
| 20260902045032 | 80 | 307 | 1.0 | 2.0 | 0.00 | 0.00 | 0.00 | 63 | 1016.8 |
| 20260902044030 | 80 | 347 | 0.0 | 2.0 | 0.00 | 0.00 | 0.00 | 62 | 1016.7 |
| 20260902043028 | 81 | 323 | 0.0 | 2.0 | 0.00 | 0.00 | 0.00 | 62 | 1016.8 |
| 20260902042026 | 81 | 318 | 0.0 | 2.0 | 0.00 | 0.00 | 0.00 | 61 | 1016.9 |
| 20260902041025 | 81 | 360 | 0.0 | 2.0 | 0.00 | 0.00 | 0.00 | 61 | 1016.8 |
| 20260902040123 | 81 | 42 | 0.0 | 1.0 | 0.00 | 0.00 | 0.00 | 60 | 1016.7 |
| 20260902035021 | 81 | 320 | 0.0 | 2.0 | 0.00 | 0.00 | 0.00 | 61 | 1016.6 |
| 20260902034019 | 81 | 323 | 0.0 | 2.0 | 0.00 | 0.00 | 0.00 | 61 | 1016.7 |
| 20260902033017 | 83 | 31 | 0.0 | 2.0 | 0.00 | 0.00 | 0.00 | 59 | 1016.7 |
| 20260902032015 | 83 | 62 | 1.0 | 2.0 | 0.00 | 0.00 | 0.00 | 58 | 1016.6 |
| 20260902031033 | 83 | 67 | 1.0 | 2.0 | 0.00 | 0.00 | 0.00 | 58 | 1016.3 |
| 20260902030031 | 84 | 54 | 0.0 | 2.0 | 0.00 | 0.00 | 0.00 | 57 | 1016.4 |
| 20260902025110 | 84 | 67 | 1.0 | 2.0 | 0.00 | 0.00 | 0.00 | 57 | 1016.3 |
| 20260902024028 | 84 | 62 | 0.0 | 2.0 | 0.00 | 0.00 | 0.00 | 57 | 1016.0 |
| 20260902023026 | 85 | 66 | 0.0 | 2.0 | 0.00 | 0.00 | 0.00 | 56 | 1016.0 |
| 20260902022024 | 85 | 49 | 1.0 | 2.0 | 0.00 | 0.00 | 0.00 | 55 | 1015.8 |
| 20260902021022 | 85 | 59 | 0.0 | 2.0 | 0.00 | 0.00 | 0.00 | 55 | 1015.8 |
| 20260902020020 | 86 | 51 | 0.0 | 2.0 | 0.00 | 0.00 | 0.00 | 54 | 1015.5 |
| 20260902015038 | 86 | 75 | 0.0 | 3.0 | 0.00 | 0.00 | 0.00 | 54 | 1015.5 |
| 20260902014037 | 86 | 41 | 0.0 | 3.0 | 0.00 | 0.00 | 0.00 | 54 | 1015.3 |
| 20260902013035 | 86 | 42 | 1.0 | 2.0 | 0.00 | 0.00 | 0.00 | 54 | 1015.2 |
| 20260902012033 | 87 | 42 | 0.0 | 2.0 | 0.00 | 0.00 | 0.00 | 54 | 1015.3 |
| 20260902011031 | 87 | 37 | 0.0 | 2.0 | 0.00 | 0.00 | 0.00 | 53 | 1015.3 |
| 20260902010029 | 88 | 299 | 0.0 | 2.0 | 0.00 | 0.00 | 0.00 | 52 | 1015.2 |
| 20260902005027 | 89 | 310 | 1.0 | 2.0 | 0.00 | 0.00 | 0.00 | 50 | 1015.2 |
| 20260902004106 | 90 | 0 | 1.0 | 2.0 | 0.00 | 0.00 | 0.00 | 49 | 1015.2 |
| 20260902003023 | 91 | 32 | 0.0 | 2.0 | 0.00 | 0.00 | 0.00 | 47 | 1015.3 |
| 20260902002021 | 92 | 65 | 1.0 | 3.0 | 0.00 | 0.00 | 0.00 | 45 | 1015.4 |
| 20260902001019 | 93 | 60 | 1.0 | 3.0 | 0.00 | 0.00 | 0.00 | 44 | 1015.4 |
| 20260902000018 | 94 | 77 | 1.0 | 4.0 | 0.00 | 0.00 | 0.00 | 43 | 1015.5 |
| 20260901235016 | 94 | 114 | 1.0 | 5.0 | 0.00 | 0.00 | 0.00 | 42 | 1015.4 |
| 20260901234034 | 95 | 30 | 1.0 | 4.0 | 0.00 | 0.00 | 0.00 | 41 | 1015.6 |
| 20260901233032 | 96 | 140 | 1.0 | 6.0 | 0.00 | 0.00 | 0.00 | 40 | 1015.6 |
| 20260901232030 | 97 | 146 | 1.0 | 5.0 | 0.00 | 0.00 | 0.00 | 39 | 1015.6 |
| 20260901231028 | 98 | 273 | 1.0 | 3.0 | 0.00 | 0.00 | 0.00 | 38 | 1015.6 |
| 20260901230046 | 99 | 295 | 1.0 | 4.0 | 0.00 | 0.00 | 0.00 | 37 | 1015.7 |
| 20260901225045 | 99 | 349 | 1.0 | 3.0 | 0.00 | 0.00 | 0.00 | 37 | 1015.5 |
| 20260901224023 | 100 | 277 | 3.0 | 7.0 | 0.00 | 0.00 | 0.00 | 35 | 1015.6 |
| 20260901223021 | 100 | 257 | 3.0 | 5.0 | 0.00 | 0.00 | 0.00 | 35 | 1015.5 |
| 20260901222019 | 100 | 336 | 1.0 | 3.0 | 0.00 | 0.00 | 0.00 | 36 | 1015.6 |
| 20260901221017 | 100 | 232 | 2.0 | 4.0 | 0.00 | 0.00 | 0.00 | 35 | 1015.6 |
| 20260901220015 | 101 | 209 | 1.0 | 4.0 | 0.00 | 0.00 | 0.00 | 35 | 1015.6 |
| 20260901215033 | 100 | 258 | 2.0 | 4.0 | 0.00 | 0.00 | 0.00 | 35 | 1015.6 |
| 20260901214031 | 103 | 255 | 3.0 | 6.0 | 0.00 | 0.00 | 0.00 | 32 | 1015.6 |
| 20260901213050 | 104 | 12 | 1.0 | 3.0 | 0.00 | 0.00 | 0.00 | 32 | 1015.7 |
| 20260901212048 | 103 | 239 | 3.0 | 7.0 | 0.00 | 0.00 | 0.00 | 32 | 1015.8 |
| 20260901211026 | 102 | 295 | 2.0 | 4.0 | 0.00 | 0.00 | 0.00 | 33 | 1016.0 |
| 20260901210024 | 102 | 30 | 3.0 | 5.0 | 0.00 | 0.00 | 0.00 | 34 | 1016.1 |
| 20260901205022 | 101 | 287 | 3.0 | 6.0 | 0.00 | 0.00 | 0.00 | 34 | 1016.2 |
| 20260901204020 | 103 | 271 | 4.0 | 9.0 | 0.00 | 0.00 | 0.00 | 33 | 1016.2 |
| 20260901203018 | 102 | 227 | 4.0 | 6.0 | 0.00 | 0.00 | 0.00 | 34 | 1016.3 |
| 20260901202037 | 102 | 15 | 2.0 | 5.0 | 0.00 | 0.00 | 0.00 | 33 | 1016.4 |
| 20260901201035 | 102 | 261 | 4.0 | 7.0 | 0.00 | 0.00 | 0.00 | 33 | 1016.6 |
| 20260901200033 | 101 | 253 | 5.0 | 11.0 | 0.00 | 0.00 | 0.00 | 33 | 1016.7 |
| 20260901195031 | 101 | 275 | 3.0 | 6.0 | 0.00 | 0.00 | 0.00 | 34 | 1016.8 |
| 20260901194029 | 100 | 35 | 2.0 | 5.0 | 0.00 | 0.00 | 0.00 | 36 | 1017.0 |
| 20260901193027 | 99 | 265 | 2.0 | 5.0 | 0.00 | 0.00 | 0.00 | 36 | 1017.0 |
| 20260901192025 | 99 | 257 | 3.0 | 6.0 | 0.00 | 0.00 | 0.00 | 36 | 1017.2 |
| 20260901191023 | 101 | 251 | 3.0 | 6.0 | 0.00 | 0.00 | 0.00 | 33 | 1017.3 |
| 20260901190022 | 101 | 251 | 5.0 | 9.0 | 0.00 | 0.00 | 0.00 | 35 | 1017.3 |
| 20260901185100 | 101 | 246 | 4.0 | 10.0 | 0.00 | 0.00 | 0.00 | 36 | 1017.4 |
| 20260901184018 | 99 | 264 | 4.0 | 7.0 | 0.00 | 0.00 | 0.00 | 38 | 1017.6 |
| 20260901183016 | 98 | 235 | 3.0 | 6.0 | 0.00 | 0.00 | 0.00 | 39 | 1017.5 |
| 20260901182035 | 101 | 275 | 4.0 | 9.0 | 0.00 | 0.00 | 0.00 | 37 | 1017.8 |
| 20260901181113 | 98 | 295 | 3.0 | 6.0 | 0.00 | 0.00 | 0.00 | 40 | 1018.0 |
| 20260901180030 | 97 | 264 | 4.0 | 8.0 | 0.00 | 0.00 | 0.00 | 40 | 1018.3 |
| 20260901175029 | 97 | 248 | 5.0 | 9.0 | 0.00 | 0.00 | 0.00 | 41 | 1018.2 |
| 20260901174027 | 97 | 272 | 5.0 | 8.0 | 0.00 | 0.00 | 0.00 | 42 | 1018.4 |
| 20260901173025 | 97 | 259 | 3.0 | 9.0 | 0.00 | 0.00 | 0.00 | 42 | 1018.5 |
| 20260901172023 | 95 | 254 | 4.0 | 6.0 | 0.00 | 0.00 | 0.00 | 45 | 1018.7 |
| 20260901171021 | 96 | 279 | 2.0 | 5.0 | 0.00 | 0.00 | 0.00 | 44 | 1018.7 |
| 20260901170019 | 95 | 266 | 3.0 | 6.0 | 0.00 | 0.00 | 0.00 | 45 | 1018.8 |
| 20260901165017 | 95 | 360 | 3.0 | 6.0 | 0.00 | 0.00 | 0.00 | 45 | 1018.9 |
| 20260901164016 | 95 | 257 | 3.0 | 9.0 | 0.00 | 0.00 | 0.00 | 45 | 1019.2 |
| 20260901163034 | 95 | 295 | 3.0 | 5.0 | 0.00 | 0.00 | 0.00 | 47 | 1019.2 |
| 20260901162032 | 94 | 280 | 4.0 | 7.0 | 0.00 | 0.00 | 0.00 | 48 | 1019.2 |
| 20260901161030 | 92 | 324 | 1.0 | 6.0 | 0.00 | 0.00 | 0.00 | 50 | 1019.3 |
| 20260901160028 | 91 | 262 | 3.0 | 5.0 | 0.00 | 0.00 | 0.00 | 53 | 1019.2 |